Location: Arborea
(39.7744°N, 8.5819°E)
Time: 13:51:37
(UTC+00:00)

Daily predictions for brighter satellites

Satellite Brightness Start Highest point End
(mag) Time Altitude Azimuth Time Altitude Azimuth Time Altitude Azimuth
STARLINK-1100 3.9 19:15:08 10° NW 19:19:13 62° SW 19:23:18 10° SE
Cosmos 1634 Rocket 4.1 19:13:57 10° N 19:20:20 81° E 19:26:39 10° S
NOSS 8 (H) 4.4 19:17:34 10° SW 19:20:56 76° NW 19:23:58 10° NNE
Meteor 2-9 Rocket 4.5 19:16:11 10° NNW 19:21:28 69° W 19:26:45 10° S
Cosmos 332 Rocket 3.9 19:16:58 10° SSW 19:21:52 89° ESE 19:26:47 10° NNE
STARLINK-1083 4.1 19:20:07 10° WNW 19:24:10 56° SW 19:28:13 10° SSE
STARLINK-1125 4.2 19:25:07 10° WNW 19:29:08 50° SW 19:33:08 10° SSE
Cosmos 1975 4.1 19:25:20 10° NNW 19:29:08 42° W 19:32:54 10° SSW
Lacrosse 5 2.7 19:26:35 10° NW 19:31:25 46° SW 19:36:14 10° SSE
EXPRESS MD2 4.0 19:29:32 10° W 19:31:58 43° NNW 19:35:51 10° NE
SL-4 R/B 3.7 19:30:48 10° WNW 19:32:45 17° WSW 19:34:34 10° SSW
Cosmos 2278 Rocket 4.4 19:28:30 10° WSW 19:33:31 32° WNW 19:38:34 10° N
STARLINK-1109 4.4 19:30:06 10° WNW 19:34:04 45° SW 19:38:01 10° SSE
STARLINK-1123 4.5 19:32:25 10° NW 19:36:23 43° NNE 19:40:20 10° ESE
FREGAT/IRIS 4.4 19:34:14 10° SSW 19:36:32 26° W 19:38:51 10° NW
MetOp-A 4.2 19:32:39 10° SSE 19:38:00 89° ENE 19:43:24 10° NNW
Intercosmos 24 4.0 19:35:10 10° N 19:38:46 59° E 19:43:13 10° SSE
STARLINK-1444 1.7 19:37:16 10° SW 19:39:13 55° SE 19:41:10 10° ENE
STARLINK-1452 1.6 19:37:25 10° SW 19:39:21 55° SE 19:41:16 10° ENE
STARLINK-1436 (VISORSAT) 1.6 19:39:02 10° SW 19:40:59 60° SE 19:42:55 10° ENE
STARLINK-1450 1.6 19:39:07 10° SW 19:41:04 60° SE 19:43:00 10° ENE
STARLINK-1399 1.6 19:39:12 10° SW 19:41:08 60° SE 19:43:06 10° ENE
STARLINK-1392 1.6 19:39:12 10° SW 19:41:09 60° SE 19:43:06 10° ENE
STARLINK-1398 1.6 19:39:12 10° SW 19:41:09 61° SE 19:43:06 10° ENE
STARLINK-1393 1.6 19:39:13 10° SW 19:41:10 61° SE 19:43:07 10° ENE
STARLINK-1395 1.6 19:39:13 10° SW 19:41:10 61° SE 19:43:07 10° ENE
STARLINK-1394 1.6 19:39:13 10° SW 19:41:10 61° SE 19:43:07 10° ENE
STARLINK-1415 1.6 19:39:13 10° SW 19:41:10 61° SE 19:43:07 10° ENE
STARLINK-1414 1.6 19:39:13 10° SW 19:41:10 61° SE 19:43:07 10° ENE
STARLINK-1396 1.6 19:39:14 10° SW 19:41:11 61° SE 19:43:08 10° ENE
STARLINK-1397 1.6 19:39:14 10° SW 19:41:11 61° SE 19:43:08 10° ENE
STARLINK-1416 1.6 19:39:14 10° SW 19:41:11 61° SE 19:43:08 10° ENE
STARLINK-1404 1.6 19:39:14 10° SW 19:41:11 61° SE 19:43:08 10° ENE
STARLINK-1401 1.6 19:39:15 10° SW 19:41:11 61° SE 19:43:08 10° NE
STARLINK-1419 1.6 19:39:15 10° SW 19:41:11 61° SE 19:43:09 10° NE
STARLINK-1408 1.6 19:39:15 10° SW 19:41:12 61° SE 19:43:09 10° NE
STARLINK-1453 1.6 19:39:16 10° SW 19:41:12 61° SE 19:43:10 10° NE
STARLINK-1417 1.6 19:39:16 10° SW 19:41:12 61° SE 19:43:10 10° NE
STARLINK-1402 1.6 19:39:16 10° SW 19:41:12 61° SE 19:43:10 10° NE
STARLINK-1437 1.6 19:39:16 10° SW 19:41:12 61° SE 19:43:10 10° NE
STARLINK-1420 1.6 19:39:17 10° SW 19:41:14 61° SE 19:43:11 10° NE
STARLINK-1413 1.6 19:39:17 10° SW 19:41:14 61° SE 19:43:11 10° NE
STARLINK-1406 1.6 19:39:17 10° SW 19:41:14 61° SE 19:43:12 10° NE
STARLINK-1458 1.6 19:39:18 10° SW 19:41:14 61° SE 19:43:12 10° NE
STARLINK-1460 1.6 19:39:18 10° SW 19:41:15 61° SE 19:43:12 10° NE
STARLINK-1422 1.6 19:39:18 10° SW 19:41:15 61° SE 19:43:12 10° NE
STARLINK-1440 1.6 19:39:19 10° SW 19:41:16 61° SE 19:43:13 10° NE
STARLINK-1445 1.6 19:39:19 10° SW 19:41:16 61° SE 19:43:13 10° NE
STARLINK-1454 1.6 19:39:21 10° SW 19:41:17 61° SE 19:43:15 10° NE
STARLINK-1443 1.6 19:39:20 10° SW 19:41:17 61° SE 19:43:14 10° NE
STARLINK-1446 1.6 19:39:21 10° SW 19:41:18 61° SE 19:43:15 10° NE
STARLINK-1457 1.6 19:39:21 10° SW 19:41:18 61° SE 19:43:16 10° NE
STARLINK-1451 1.6 19:39:22 10° SW 19:41:19 61° SE 19:43:16 10° NE
STARLINK-1456 1.6 19:39:22 10° SW 19:41:19 61° SE 19:43:16 10° NE
STARLINK-1447 1.6 19:39:22 10° SW 19:41:19 61° SE 19:43:17 10° NE
STARLINK-1455 1.6 19:39:23 10° SW 19:41:20 61° SE 19:43:17 10° NE
STARLINK-1442 1.6 19:39:23 10° SW 19:41:20 61° SE 19:43:18 10° NE
STARLINK-1449 1.6 19:39:23 10° SW 19:41:20 61° SE 19:43:18 10° NE
STARLINK-1448 1.6 19:39:24 10° SW 19:41:21 61° SE 19:43:18 10° NE
STARLINK-1441 1.6 19:39:24 10° SW 19:41:21 61° SE 19:43:18 10° NE
STARLINK-1405 1.6 19:39:25 10° SW 19:41:22 61° SE 19:43:19 10° NE
STARLINK-1423 1.6 19:39:25 10° SW 19:41:22 61° SE 19:43:19 10° NE
STARLINK-1421 1.6 19:39:25 10° SW 19:41:22 61° SE 19:43:19 10° NE
STARLINK-1410 1.6 19:39:25 10° SW 19:41:22 61° SE 19:43:20 10° NE
STARLINK-1407 1.6 19:39:25 10° SW 19:41:22 61° SE 19:43:20 10° NE
STARLINK-1097 4.3 19:37:22 10° NW 19:41:23 46° NE 19:45:15 11° ESE
STARLINK-1439 1.6 19:39:26 10° SW 19:41:23 61° SE 19:43:21 10° NE
STARLINK-1400 1.6 19:39:25 10° SW 19:41:23 61° SE 19:43:20 10° NE
STARLINK-1409 1.6 19:39:27 10° SW 19:41:24 61° SE 19:43:21 10° NE
STARLINK-1351 1.6 19:39:27 10° SW 19:41:24 61° SE 19:43:22 10° NE
STARLINK-1434 1.6 19:39:28 10° SW 19:41:25 61° SE 19:43:22 10° NE
STARLINK-1418 1.6 19:39:28 10° SW 19:41:25 61° SE 19:43:22 10° NE
STARLINK-1370 1.6 19:39:28 10° SW 19:41:25 61° SE 19:43:22 10° NE
STARLINK-1433 1.6 19:39:29 10° SW 19:41:26 61° SE 19:43:24 10° NE
STARLINK-1403 1.6 19:39:29 10° SW 19:41:26 61° SE 19:43:23 10° NE
STARLINK-1411 1.6 19:39:31 10° SW 19:41:28 61° SE 19:43:25 10° NE
STARLINK-1438 1.6 19:39:31 10° SW 19:41:28 61° SE 19:43:25 10° NE
STARLINK-1412 1.6 19:39:31 10° SW 19:41:28 61° SE 19:43:26 10° NE
STARLINK-29 3.3 19:39:04 10° SSW 19:42:07 41° SE 19:45:11 10° ENE
ISS -1.8 19:40:31 10° W 19:43:10 22° SW 19:45:48 10° S
SJ-6B 3.9 19:40:22 10° S 19:43:53 41° W 19:47:28 10° NNW
STARLINK-1099 4.2 19:42:20 10° NW 19:46:23 50° NE 19:50:02 12° ESE
Cosmos 1378 4.4 19:44:38 12° SE 19:47:12 24° E 19:50:14 10° NE
USA 186 4.3 19:49:38 10° SW 19:51:16 15° W 19:52:59 10° NW
STARLINK-1104 4.1 19:47:18 10° NW 19:51:23 55° NE 19:54:49 14° ESE
BREEZE-M DEB (TANK) 3.4 19:52:14 10° S 19:54:28 28° SE 19:58:53 10° ENE
Cosmos 1741 Rocket 4.1 19:50:14 10° NNW 19:55:28 80° WSW 20:00:41 10° SSE
STARLINK-1144 3.9 19:52:15 10° NW 19:56:22 60° NE 19:59:36 16° ESE
CZ-2C R/B 4.4 19:52:03 10° N 19:56:30 57° WNW 20:01:01 10° SSW
Cosmos 1110 Rocket 4.0 19:52:53 10° SSW 19:58:04 90° ESE 20:03:16 10° NNE
Spot 2 Rocket 4.2 19:54:46 14° SE 19:58:37 39° ENE 20:03:16 10° N
STARLINK-1103 3.8 19:57:13 10° NW 20:01:20 65° NE 20:04:22 17° ESE
Cosmos 1850 Rocket 4.4 19:57:09 10° NNW 20:02:28 66° WSW 20:07:43 10° S
CENTAUR R/B 4.2 19:55:53 10° NNW 20:03:09 36° NE 20:10:45 11° ESE
STARLINK-1101 3.7 20:02:10 10° NW 20:06:19 72° NE 20:09:09 19° ESE
SAR-Lupe-2 4.2 20:03:44 10° NNE 20:07:04 35° E 20:09:00 20° SSE
BREEZE M DEB (TANK) 4.2 20:00:15 10° WSW 20:08:07 50° NNW 20:10:56 10° NE
Okean 1 Rocket 3.2 20:05:17 10° N 20:09:41 59° E 20:12:46 18° SSE
Cosmos 1331 Rocket 4.1 20:05:45 10° SSW 20:10:54 78° WNW 20:16:07 10° NNE
CZ-2C R/B 3.8 20:05:46 10° N 20:11:09 49° WNW 20:16:30 10° SW
STARLINK-1102 3.6 20:07:10 10° NW 20:11:20 79° NE 20:13:57 22° SE
SPOT 5 4.4 20:09:28 15° ESE 20:12:35 25° ENE 20:16:53 10° NNE
STARLINK-1111 3.6 20:12:10 10° NW 20:16:19 86° NE 20:18:45 24° SE
STARLINK-52 2.8 20:14:20 10° SW 20:17:31 88° SSE 20:20:45 10° NE
Cosmos 1943 Rocket 2.1 20:13:24 10° SSW 20:18:55 81° ESE 20:24:32 10° NNE
SL-4 R/B 2.9 20:15:22 10° WSW 20:19:59 64° NW 20:24:48 10° NE
STARLINK-1073 3.6 20:17:07 10° NW 20:21:16 87° SW 20:23:31 26° SE
Terra 3.5 20:19:29 15° E 20:21:41 20° ENE 20:25:05 10° NNE
GPS 2-04 Rocket1 4.1 20:20:09 10° WSW 20:22:40 19° SSW 20:23:15 18° S
Nadezhda 4 Rocket 3.9 20:17:44 10° S 20:23:52 87° E 20:30:01 10° N
SPOT 1/Viking Rocket 3.9 20:21:05 22° SE 20:24:12 49° ENE 20:29:10 10° N
Cosmos 1302 Rocket 4.0 20:19:03 10° S 20:24:18 72° ESE 20:29:35 10° NNE
IGS 5A 3.6 20:22:49 25° SE 20:25:02 56° ENE 20:29:08 10° N
STARLINK-1121 3.6 20:22:05 10° NW 20:26:13 79° SW 20:28:16 29° SE
APEX 4.4 20:20:46 10° S 20:27:13 56° ESE 20:32:36 10° NE
Resurs 01 Rocket 2.5 20:24:28 11° S 20:28:30 47° W 20:32:49 10° NNW
USA 245 2.3 20:28:14 46° SE 20:28:46 59° ENE 20:31:10 10° N
NOSS 3-4 (A) 3.6 20:23:37 10° S 20:29:10 44° ESE 20:34:58 10° NE
NOSS 3-4 (C) 3.6 20:23:44 10° S 20:29:16 44° ESE 20:35:03 10° NE
FALCON 9 DEB 3.0 20:26:30 10° SW 20:29:53 68° SE 20:33:18 10° NE
ATLAS CENTAUR R/B 2.1 20:28:18 25° SSE 20:29:57 34° ESE 20:33:47 10° NE
STARLINK-1106 3.6 20:27:05 10° NW 20:31:13 71° SW 20:33:05 31° SE
Okean 2 3.5 20:29:57 26° SSE 20:32:01 54° E 20:36:05 10° NNE
SL-27 R/B 3.2 20:32:21 10° N 20:35:42 37° ENE 20:36:32 32° ESE
STARLINK-1112 3.7 20:32:05 10° NW 20:36:11 64° SW 20:37:52 33° SSE
Cosmos 1656 Rocket 4.1 20:37:43 25° SSE 20:40:27 41° ESE 20:45:40 10° NE
STARLINK-1128 3.8 20:37:04 10° WNW 20:41:08 58° SW 20:42:38 35° SSE
Cosmos 1992 Rocket 4.5 20:41:03 29° SE 20:42:54 39° ESE 20:47:43 10° NE
STARLINK-1113 4.0 20:42:06 10° WNW 20:46:08 52° SW 20:47:26 36° S
STARLINK-1365 4.3 20:47:48 33° E 20:47:48 33° E 20:50:33 10° ENE
Cosmos 2082 Rocket 4.3 20:43:02 10° NW 20:47:05 20° W 20:51:07 10° SW
CZ-4B DEB 4.3 20:47:22 52° SE 20:47:59 67° ENE 20:51:19 10° N
Cosmos 1242 Rocket 2.9 20:48:44 42° ESE 20:49:02 43° E 20:52:34 10° NNE
Cosmos 2369 Rocket 2.3 20:44:47 10° SSW 20:50:28 80° WNW 20:56:09 10° NNE
STARLINK-1119 4.1 20:47:05 10° WNW 20:51:05 47° SW 20:52:12 36° S
BREEZE-M DEB 3.9 20:49:43 10° W 20:51:59 37° NNW 20:56:35 10° NE
Cosmos 1766 3.3 20:50:09 10° N 20:54:09 78° W 20:55:36 38° S
Abrixas rocket 3.9 20:52:26 10° W 20:54:17 19° SW 20:54:17 19° SW
ATLAS 3B CENTAUR R/B 3.8 20:40:27 10° WSW 20:55:53 44° SSW 21:00:02 28° SE
STARLINK-1114 4.3 20:52:07 10° WNW 20:56:03 42° SW 20:57:00 36° S
ATLAS 2AS CENTAUR R/B 3.0 20:48:57 10° SSW 20:56:50 78° ESE 21:04:50 10° NE
Cosmos 292 Rocket 3.8 20:57:16 18° SSW 21:00:50 83° WNW 21:05:43 10° NNE
STARLINK-1130 (DARKSAT) 4.4 20:57:08 10° WNW 21:00:59 38° SW 21:01:46 34° SSW
ERS-1 Rocket 2.9 20:59:14 36° SSE 21:01:18 80° ENE 21:06:22 10° N
NOSS 3-2 (A) 4.1 20:54:05 10° NW 21:01:52 80° WSW 21:06:43 29° SSE
STARLINK-1338 4.4 21:03:39 32° ENE 21:03:39 32° ENE 21:05:55 10° ENE
STARLINK-1247 4.5 21:00:31 10° NNW 21:03:16 27° NNE 21:03:52 25° NE
STARLINK-1227 4.5 21:01:00 10° NNW 21:03:44 27° NNE 21:04:18 25° NE
SL-8 R/B 4.1 20:59:27 10° WNW 21:04:06 49° SW 21:05:16 40° S
STARLINK-1226 4.4 21:02:01 10° NNW 21:04:46 28° NNE 21:05:19 26° NE
STARLINK-1215 4.4 21:02:46 10° NNW 21:05:32 28° NNE 21:06:03 26° NE
STARLINK-1229 4.4 21:03:35 10° NNW 21:06:12 27° NNE 21:06:32 26° NE
STARLINK-1270 4.4 21:04:24 10° NNW 21:07:02 27° NNE 21:07:19 27° NE
STARLINK-1209 3.8 21:04:16 10° NW 21:07:12 38° NE 21:07:22 38° NE
BREEZE-M DEB (TANK) 3.7 20:55:44 10° NW 21:07:12 80° NNE 21:09:23 34° ESE
STARLINK-1217 4.4 21:04:36 10° NNW 21:07:24 29° NNE 21:07:49 28° NE
STARLINK-1189 4.3 21:06:40 10° NNW 21:09:21 29° NNE 21:09:34 28° NE
STARLINK-1188 4.3 21:08:02 10° NNW 21:10:47 30° NNE 21:10:59 29° NE
STARLINK-1371 3.7 21:12:08 50° E 21:12:08 50° E 21:15:12 10° NE
Cosmos 1867 4.1 21:07:42 10° NNW 21:13:00 48° NE 21:15:01 33° ESE
Cosmos 1092 Rocket 4.4 21:08:42 15° SSW 21:13:47 61° W 21:19:53 10° N
STARLINK-1191 4.2 21:11:15 10° NNW 21:14:05 32° NNE 21:14:10 32° NE
STARLINK-1221 4.2 21:12:14 10° NW 21:15:04 33° NNE 21:15:08 33° NE
STARLINK-1341 3.6 21:16:01 57° E 21:16:01 57° E 21:19:14 10° NE
STARLINK-1222 4.1 21:13:15 10° NW 21:16:06 33° NNE 21:16:07 33° NE
USA 238 DEB 4.0 21:08:57 10° NW 21:16:09 66° WSW 21:19:44 33° S
USA 238 4.0 21:09:03 10° NW 21:16:15 66° WSW 21:19:50 33° S
Cosmos 968 Rocket 3.5 21:11:17 10° NNW 21:16:25 69° ENE 21:17:49 47° SE
Cosmos 1975 Rocket 3.8 21:14:15 24° SW 21:16:41 51° W 21:20:58 10° N
STARLINK-1214 4.1 21:14:23 10° NW 21:17:14 34° NNE 21:17:14 34° NNE
Cosmos 1025 Rocket 3.2 21:17:47 50° ESE 21:17:57 50° E 21:22:08 10° NNE
STARLINK-1374 3.5 21:19:52 62° ENE 21:19:52 62° ENE 21:23:10 10° NE
STARLINK-1234 3.6 21:18:03 10° NW 21:21:27 53° NE 21:21:28 53° NE
STARLINK-1228 3.6 21:18:57 10° NW 21:22:26 55° NE 21:22:31 55° NE
STARLINK-1339 3.4 21:23:42 70° ENE 21:23:42 70° ENE 21:27:09 10° NE
COSMOS 2455 2.7 21:21:21 30° SSW 21:24:23 73° ESE 21:30:24 10° NNE
STARLINK-1377 3.4 21:28:58 76° WSW 21:29:15 87° NW 21:33:11 10° NE
STARLINK-1187 3.9 21:28:13 10° NW 21:30:51 47° N 21:30:51 47° N
Cosmos 1470 2.6 21:29:02 10° N 21:32:50 85° NE 21:32:50 85° NE
STARLINK-1353 3.5 21:32:53 66° WSW 21:33:22 80° NW 21:37:19 10° NE
H-2A ROCKET BODY 4.4 21:26:59 10° SW 21:34:16 48° SSE 22:13:25 10° E
STARLINK-1375 3.5 21:35:41 72° W 21:35:56 76° NW 21:39:49 10° NE
Cosmos 1726 3.4 21:34:27 10° NNE 21:37:13 31° NE 21:37:13 31° NE
Cosmos 1340 Rocket 3.9 21:34:45 10° N 21:38:13 35° ENE 21:38:13 35° ENE
BREEZE-M DEB (TANK) 4.4 21:27:03 10° WNW 21:39:46 59° NNE 21:41:51 31° E
Thor Agena Rocket 3.9 21:35:35 10° NNE 21:40:38 45° E 21:40:50 45° ESE
Milstar 3 Cent rocket 4.3 21:32:33 10° SW 21:41:31 49° SSE 22:00:28 10° E
STARLINK-1350 3.7 21:40:46 49° W 21:41:39 68° NW 21:45:35 10° NE
RESURS DK-1 3.3 21:45:05 36° ENE 21:45:05 36° ENE 21:47:53 10° NE
STARLINK-1352 3.8 21:44:45 42° W 21:45:52 63° NW 21:49:47 10° NE
Cosmos 1455 Rocket 4.1 21:44:56 10° NNW 21:48:55 37° W 21:49:41 34° WSW
STARLINK-1368 4.0 21:48:46 37° W 21:50:05 58° NW 21:53:59 10° NE
SPOT 5 3.9 21:48:42 33° SW 21:50:20 42° W 21:55:25 10° NNW
Meteor 2-10 3.8 21:45:57 10° N 21:50:59 70° E 21:51:31 64° ESE
Cosmos 1953 2.7 21:48:35 10° N 21:51:59 54° NE 21:51:59 54° NE
STARLINK-1369 4.2 21:52:47 32° W 21:54:18 54° NW 21:58:11 10° NE
CENTAUR R/B 3.3 21:46:17 10° NW 21:54:31 69° WSW 21:57:56 41° S
S3M 3.9 21:48:37 10° N 21:54:51 80° E 21:56:24 54° SSE
Cosmos 1503 Rocket 4.0 21:50:41 10° NNW 21:56:01 74° WSW 21:56:49 61° SSW
Cosmos 1271 Rocket 3.9 21:56:18 34° W 21:56:49 36° WNW 22:00:29 10° N
STARLINK-1372 4.3 21:56:48 28° W 21:58:33 50° NW 22:02:25 10° NE
Terra 2.5 21:58:22 40° WSW 21:59:06 43° W 22:03:38 10° NNW
STARLINK-1378 4.4 21:59:49 29° W 22:01:21 47° NW 22:05:08 10° NE
ATLAS 3B R/B 2.8 21:54:56 10° NNW 22:01:46 71° NE 22:04:04 45° SE
Cosmos 2297 Rocket 4.3 21:59:50 10° N 22:03:29 17° NE 22:06:16 13° E
BREEZE-M DEB (TANK) 2.7 21:54:58 10° SW 22:04:15 89° N 22:07:28 10° NE
Cosmos 1553 Rocket 4.2 21:59:43 10° NNW 22:05:51 61° W 22:07:36 44° SSW
Meteor 2-8 Rocket 4.4 22:00:11 10° N 22:06:21 81° W 22:07:46 56° S
Cosmos 1707 3.9 22:08:16 37° W 22:08:19 37° WNW 22:11:56 10° N
ATLAS CENTAUR R/B 3.5 22:05:13 10° WSW 22:08:52 25° NW 22:12:21 10° N
Cosmos 1758 4.4 22:06:49 10° NNW 22:10:28 37° W 22:10:28 37° W
SeaSat 1 2.8 22:06:53 10° NE 22:11:04 49° E 22:11:04 49° E
COSMOS 2487 3.9 22:11:35 10° NNW 22:13:45 35° NW 22:13:45 35° NW
Cosmos 1354 Rocket 4.4 22:12:39 10° NNW 22:17:48 52° WSW 22:18:14 51° WSW
STARLINK-1204 4.4 22:16:16 10° NW 22:20:08 47° NNE 22:20:08 47° NNE
EO 1 Del DPAF 4.1 22:16:59 10° N 22:19:51 49° N 22:19:51 49° N
STARLINK-1238 4.4 22:21:14 10° NW 22:24:56 49° NNE 22:24:56 49° NNE
Cosmos 2266 Rocket 4.0 22:24:05 54° SW 22:25:24 72° W 22:31:27 10° N
Cosmos 2084 4.5 22:26:10 38° W 22:27:06 44° NW 22:31:24 10° NNE
Meteor 1-16 Rocket 4.0 22:22:20 10° NNW 22:27:45 75° W 22:28:05 72° SW
STARLINK-1201 4.4 22:26:12 10° NW 22:29:42 50° N 22:29:42 50° N
STARLINK-1206 4.4 22:31:09 10° NW 22:34:29 50° NNW 22:34:29 50° NNW
Cosmos 2227 Rocket 3.7 22:36:37 10° N 22:41:28 28° ENE 22:43:18 23° E
Spot 4 4.0 22:42:23 66° W 22:42:23 66° W 22:46:57 10° NNW
Meteor 2-21 4.4 22:47:15 66° SE 22:47:49 70° E 22:54:00 10° NNE
Cosmos 1244 Rocket 4.4 22:47:21 63° ESE 22:47:55 67° E 22:54:01 10° NNE
Cosmos 2098 Rocket 4.4 22:45:55 51° SSW 22:47:55 74° W 22:55:24 10° N
Cosmos 2058 Rocket 3.8 22:47:09 10° N 22:50:50 48° NE 22:50:50 48° NE
Meteor 2-5 Rocket 3.5 22:51:49 81° SW 22:52:04 85° W 22:57:45 10° N
Cosmos 1606 Rocket 4.1 22:48:08 10° NNW 22:51:37 54° NW 22:51:37 54° NW
ALOS 2 3.0 22:53:44 60° N 22:53:44 60° N 22:57:24 10° N
FALCON 9 R/B 4.3 22:58:56 22° ESE 22:58:56 22° ESE 23:03:11 10° E
CZ-4C R/B 2.8 22:59:36 40° E 22:59:36 40° E 23:03:45 10° NE
Cosmos 1300 4.2 23:02:39 10° N 23:05:03 34° NNE 23:05:03 34° NNE
SL-08 R/B 4.5 23:07:34 64° SE 23:08:11 68° E 23:14:29 10° NNE
Helios 1B rocket 4.4 23:07:13 10° NE 23:09:18 21° ENE 23:09:18 21° ENE
Meteor 2-14 Rocket 4.3 23:15:15 69° SW 23:15:53 77° W 23:22:03 10° N
Cosmos 921 Rocket 4.2 23:18:04 37° NW 23:18:04 37° NW 23:21:44 10° N
Meteor 2-21 Rocket 4.3 23:18:06 75° SSW 23:18:40 87° W 23:24:54 10° N
Cosmos 2228 4.5 23:15:36 10° NNW 23:18:24 30° WNW 23:18:24 30° WNW
Cosmos 1980 Rocket 3.6 23:25:34 26° E 23:25:34 26° E 23:29:41 10° NE
Okean 1-7 Rocket 4.5 23:25:56 45° NW 23:25:56 45° NW 23:29:44 10° N
Timation 2 Rocket 4.3 23:19:31 10° NW 23:25:18 47° WSW 23:25:18 47° WSW
Lacrosse 4 Rocket 3.1 23:23:03 10° N 23:26:45 27° NE 23:26:58 27° ENE
USA 215 3.9 23:26:26 12° ESE 23:32:14 52° NE 23:38:32 10° NW
Cosmos 2369 4.0 23:33:19 55° E 23:33:19 55° E 23:38:34 10° NNE
Meteor 1-24 Rocket 4.2 23:36:46 44° W 23:37:06 44° WNW 23:42:21 10° N
Helios 1A 4.0 23:38:21 42° NW 23:38:21 42° NW 23:41:16 10° NNW
CZ-4 R/B 4.2 23:32:59 10° NNE 23:36:58 55° ENE 23:36:58 55° ENE
Cosmos 1709 Rocket 4.4 23:40:00 45° ESE 23:40:44 47° E 23:46:36 10° NNE
Cosmos 1626 4.2 23:42:49 22° NW 23:42:49 22° NW 23:44:49 10° NNW
Cosmos 1455 4.1 23:39:21 10° NNE 23:41:40 25° NE 23:41:40 25° NE
Cosmos 540 Rocket 4.4 23:44:01 37° E 23:44:01 37° E 23:48:14 10° NE
SJ 16-02 1.9 23:41:25 10° NNW 23:44:59 56° N 23:44:59 56° N
Cosmos 2360 4.4 23:47:51 56° ESE 23:47:51 56° ESE 23:53:19 10° NNE
Cosmos 2297 Rocket 2.1 23:42:30 10° NNW 23:48:02 75° W 23:48:02 75° W
SeaSat 1 4.4 23:45:10 10° N 23:48:53 22° NW 23:50:49 17° W
Cosmos 1656 4.0 23:48:16 52° W 23:48:54 55° WNW 23:54:25 10° NNE
Cosmos 2219 3.4 23:44:53 10° NNW 23:50:00 56° W 23:50:00 56° W
ATLAS 3B R/B 4.1 23:46:48 10° WNW 23:51:18 22° WSW 23:51:18 22° WSW
Cosmos 468 Rocket 4.0 23:52:35 69° WNW 23:52:35 69° WNW 23:57:35 10° NNE
